Find Starlink 36300

NORAD ID: 68303 Int'l Des: 2026-057 Owner: SPXS Country: US Constellation: starlink operational
LEOCIRCULARRETROGRADE

現在のビュー

3D地球を読み込み中...

About Starlink 36300

Starlink 36300 (NORAD 68303) is a starlink constellation satellite (v2 mini) launched Mar 20, 2026 by SPXS of US. It operates in LEO, CIRCULAR, RETROGRADE orbit with a mass of 575.00 kg.

Starlink 36300について

説明を読み込み中...

次回通過

Passes for default location (London). Set your location on the main map for personalized predictions.

高度履歴

Loading altitude history...

軌道要素

1 68303U 26057K 26170.31617864 .00031023 00000-0 95918-3 0 9996
2 68303 97.2858 297.0456 0000636 80.9078 279.2237 15.33450364 14237
Epoch: Jun 19, 2026 • Age: 26 hours

現在のステータス

高度 478.8 km
速度 7.62 km/s
衛星直下点 -34.45°S, 60.82°E
打ち上げ日 Mar 20, 2026
運用期間 0.2 years
タイプ internet

技術仕様

分類 Payload
質量 575.00 kg
乾燥質量 530.00 kg
総質量 575.00 kg
長さ 0.30 m
直径 4.10 m
スパン 29.00 m
形状 Box + pan
製造者 SPXS
バスタイプ Starlink V2MO
フェーズステータス In Orbit
所有者/国 SPXS/US

Most Searched